Regional Weather Roundup
Issued by NWS Cleveland, OH

Home | Current Version | Previous Version | Graphics & Text | Print | Product List | Glossary On
Versions: 1 2 3 4 5 6 7 8 9 10 11 12 13 14 15 16 17 18 19 20 21 22 23 24 25 26 27 28 29 30 31 32 33 34 35 36 37 38 39 40 41 42 43 44 45 46 47 48 49 50
000
ASUS41 KCLE 121710
RWRCLE
OHIO REGIONAL WEATHER ROUNDUP
NATIONAL WEATHER SERVICE WILMINGTON, OH
1200 PM EST FRI FEB 12 2016

NOTE: "FAIR" INDICATES FEW OR NO CLOUDS BELOW 12,000 FEET WITH NO
SIGNIFICANT WEATHER AND/OR OBSTRUCTIONS TO VISIBILITY.

OHZ001>008-015>018-024>027-034-035-043-044-121800-
   NORTHWEST OHIO

CITY           SKY/WX    TMP DP  RH WIND       PRES   REMARKS
DEFIANCE       PTSUNNY   24  10  55 W12G22    30.07F WCI  13
FINDLAY        CLOUDY    23   9  55 SW16G22   30.06F WCI  10
TOLEDO EXPRESS CLOUDY    22  10  60 W21G29    30.04F WCI   6
TOLEDO EXEC      N/A    N/A N/A N/A MISG      30.05F
LIMA           CLOUDY    22  10  60 W14       30.07F WCI   9
$$

OHZ009>014-019>023-028>033-038-089-121800-
   NORTHEAST OHIO

CITY           SKY/WX    TMP DP  RH WIND       PRES   REMARKS
CLE-HOPKINS    CLOUDY    21   8  57 SW17      30.08F WCI   7
CLE-LAKEFRONT  CLOUDY    22  10  60 SW17G26   30.05F WCI   8
CUY CO. ARPT   CLOUDY    21  10  63 SW16      30.04F WCI   7
LORAIN-ELYRIA  CLOUDY    20   8  60 W20G28    30.05F WCI   4
ASHTABULA      CLOUDY    19   7  59 SW13      30.03F WCI   6
AKRON-CANTON   CLOUDY    19   6  57 SW15      30.06S WCI   5
WOOSTER        CLOUDY    19   8  62 SW12      30.06F WCI   7
MANSFIELD      CLOUDY    19   8  62 SW15G24   30.04F WCI   5
YOUNGSTOWN     CLOUDY    18   8  65 SW13G22   30.04F WCI   5
$$

OHZ042-051>053-060>062-070>072-077>081-121800-
  SOUTHWEST OHIO

CITY           SKY/WX    TMP DP  RH WIND       PRES   REMARKS
CINC-COVINGTON FLURRIES  25  17  72 SW10G17   30.14F WCI  15
CINC-LUNKEN    CLOUDY    26  19  74 SW8       30.17F WCI  18
HAMILTON       CLOUDY    26  17  68 SW9       30.16F WCI  17
DAYTON         CLOUDY    24  12  60 SW16      30.11F WCI  11
WRIGHT-PAT AFB CLOUDY    24  10  56 W13       30.11F WCI  12
DAYTON GENERAL CLOUDY    24  12  60 SW10      30.11F WCI  14
WILMINGTON     LGT SNOW  22  15  75 SW15      30.10F WCI   9
$$

OHZ036-037-039>041-045>050-054>059-063>069-073>076-082>088-121800-
  CENTRAL AND SOUTHEAST OHIO

CITY           SKY/WX    TMP DP  RH WIND       PRES   REMARKS
COLUMBUS       CLOUDY    20   6  55 S8        30.12F WCI  10
OSU AIRPORT    CLOUDY    24   9  52 SW14      30.10F WCI  12
BOLTON FIELD   CLOUDY    21  10  63 SW9       30.12F WCI  11
RICKENBACK AFB PTSUNNY   20   9  63 S7        30.13F WCI  11
NEWARK         CLOUDY    21   8  57 S9        30.10F WCI  11
MARION         CLOUDY    22   7  52 SW14      30.08F WCI   9
LANCASTER      CLOUDY    22   8  55 SW9       30.12F WCI  12
ZANESVILLE     CLOUDY    22   8  55 S7        30.11F WCI  13
NEW PHILLY     PTSUNNY   20   7  57 W9        30.11F WCI   9
$$



USA.gov is the U.S. government's official web portal to all federal, state and local government web resources and services.